| time (UTC) | temp F | wind direction | speed MPH | gust MPH | rain 1hr in | rain 24hr in | rain mn in | humidity % | barometer mb |
| 20260904171113 | 70 | 174 | 0.0 | 0.0 | 0.00 | 0.01 | 0.01 | 76 | 1010.0 |
| 20260904165113 | 70 | 161 | 0.0 | 1.0 | 0.00 | 0.01 | 0.01 | 76 | 1010.0 |
| 20260904164113 | 71 | 161 | 0.0 | 0.0 | 0.00 | 0.01 | 0.01 | 75 | 1010.3 |
| 20260904163112 | 71 | 161 | 0.0 | 1.0 | 0.00 | 0.01 | 0.01 | 74 | 1010.4 |
| 20260904161112 | 71 | 311 | 1.0 | 8.0 | 0.00 | 0.01 | 0.01 | 73 | 1010.5 |
| 20260904155112 | 71 | 24 | 1.0 | 6.0 | 0.00 | 0.01 | 0.01 | 72 | 1010.4 |
| 20260904151112 | 71 | 174 | 3.0 | 13.0 | 0.01 | 0.01 | 0.01 | 72 | 1010.7 |
| 20260904150112 | 71 | 74 | 1.0 | 6.0 | 0.01 | 0.01 | 0.01 | 73 | 1010.7 |
| 20260904143112 | 71 | 145 | 5.0 | 12.0 | 0.00 | 0.00 | 0.00 | 73 | 1011.0 |
| 20260904141111 | 71 | 144 | 5.0 | 11.0 | 0.00 | 0.00 | 0.00 | 74 | 1011.3 |
| 20260904135111 | 70 | 279 | 4.0 | 28.0 | 0.00 | 0.00 | 0.00 | 76 | 1011.6 |
| 20260904134111 | 70 | 86 | 3.0 | 12.0 | 0.00 | 0.00 | 0.00 | 78 | 1011.7 |
| 20260904133111 | 69 | 142 | 4.0 | 10.0 | 0.00 | 0.00 | 0.00 | 78 | 1011.7 |
| 20260904131111 | 69 | 105 | 1.0 | 6.0 | 0.00 | 0.00 | 0.00 | 79 | 1011.9 |
| 20260904125111 | 69 | 175 | 1.0 | 6.0 | 0.00 | 0.00 | 0.00 | 79 | 1012.4 |
| 20260904123111 | 68 | 168 | 1.0 | 7.0 | 0.00 | 0.00 | 0.00 | 80 | 1012.6 |
| 20260904122111 | 68 | 153 | 1.0 | 6.0 | 0.00 | 0.00 | 0.00 | 79 | 1012.9 |
| 20260904120111 | 68 | 66 | 2.0 | 6.0 | 0.00 | 0.00 | 0.00 | 82 | 1012.9 |
| 20260904115111 | 67 | 120 | 0.0 | 5.0 | 0.00 | 0.00 | 0.00 | 83 | 1013.2 |
| 20260904112110 | 67 | 168 | 1.0 | 6.0 | 0.00 | 0.00 | 0.00 | 83 | 1013.5 |
| 20260904110110 | 67 | 136 | 1.0 | 8.0 | 0.00 | 0.00 | 0.00 | 84 | 1013.6 |
| 20260904103110 | 66 | 92 | 1.0 | 7.0 | 0.00 | 0.00 | 0.00 | 88 | 1014.0 |
| 20260904100113 | 63 | 229 | 0.0 | 1.0 | 0.00 | 0.00 | 0.00 | 91 | 1014.7 |
| 20260904095113 | 62 | 229 | 1.0 | 4.0 | 0.00 | 0.00 | 0.00 | 91 | 1014.7 |
| 20260904092113 | 61 | 146 | 0.0 | 0.0 | 0.00 | 0.00 | 0.00 | 93 | 1014.3 |
| 20260904085113 | 60 | 156 | 1.0 | 6.0 | 0.00 | 0.00 | 0.00 | 94 | 1014.6 |
| 20260904083113 | 60 | 196 | 2.0 | 7.0 | 0.00 | 0.00 | 0.00 | 94 | 1014.9 |
| 20260904082113 | 59 | 128 | 1.0 | 7.0 | 0.00 | 0.00 | 0.00 | 94 | 1014.8 |
| 20260904081113 | 59 | 144 | 0.0 | 0.0 | 0.00 | 0.00 | 0.00 | 94 | 1014.8 |
| 20260904080113 | 58 | 144 | 1.0 | 7.0 | 0.00 | 0.00 | 0.00 | 94 | 1014.9 |
| 20260904075113 | 58 | 183 | 0.0 | 4.0 | 0.00 | 0.00 | 0.00 | 93 | 1014.9 |
| 20260904071112 | 58 | 182 | 0.0 | 1.0 | 0.00 | 0.00 | 0.00 | 94 | 1015.5 |
| 20260904065112 | 57 | 186 | 0.0 | 0.0 | 0.00 | 0.00 | 0.00 | 93 | 1015.2 |
| 20260904063112 | 57 | 308 | 0.0 | 1.0 | 0.00 | 0.00 | 0.00 | 93 | 1015.4 |
| 20260904062112 | 57 | 308 | 0.0 | 0.0 | 0.00 | 0.00 | 0.00 | 93 | 1015.4 |
| 20260904061112 | 57 | 308 | 0.0 | 0.0 | 0.00 | 0.00 | 0.00 | 93 | 1015.4 |
| 20260904060112 | 56 | 308 | 0.0 | 0.0 | 0.00 | 0.00 | 0.00 | 93 | 1015.4 |
| 20260904053112 | 56 | 308 | 0.0 | 0.0 | 0.00 | 0.00 | 0.00 | 93 | 1015.5 |
| 20260904043111 | 56 | 308 | 0.0 | 0.0 | 0.00 | 0.00 | 0.00 | 92 | 1016.0 |
| 20260904041111 | 56 | 308 | 0.0 | 0.0 | 0.00 | 0.00 | 0.00 | 91 | 1015.8 |
| 20260904040111 | 57 | 308 | 0.0 | 0.0 | 0.00 | 0.00 | 0.00 | 92 | 1016.1 |
| 20260904035111 | 57 | 308 | 0.0 | 0.0 | 0.00 | 0.00 | 0.00 | 91 | 1016.2 |
| 20260904033111 | 57 | 308 | 0.0 | 0.0 | 0.00 | 0.00 | 0.00 | 91 | 1016.2 |
| 20260904032111 | 57 | 308 | 0.0 | 0.0 | 0.00 | 0.00 | 0.00 | 91 | 1016.4 |
| 20260904025111 | 57 | 308 | 0.0 | 0.0 | 0.00 | 0.00 | 0.00 | 91 | 1016.6 |
| 20260904022111 | 58 | 308 | 0.0 | 0.0 | 0.00 | 0.00 | 0.00 | 90 | 1016.7 |
| 20260904021111 | 58 | 308 | 0.0 | 0.0 | 0.00 | 0.00 | 0.00 | 90 | 1016.7 |
| 20260904012109 | 58 | 308 | 0.0 | 0.0 | 0.00 | 0.00 | 0.00 | 90 | 1017.0 |
| 20260904004109 | 58 | 308 | 0.0 | 0.0 | 0.00 | 0.00 | 0.00 | 90 | 1016.7 |
| 20260904002109 | 58 | 308 | 0.0 | 0.0 | 0.00 | 0.00 | 0.00 | 92 | 1016.8 |
| 20260903234109 | 57 | 308 | 0.0 | 0.0 | 0.00 | 0.00 | 0.00 | 89 | 1017.2 |
| 20260903232108 | 58 | 308 | 0.0 | 0.0 | 0.00 | 0.00 | 0.00 | 88 | 1017.5 |
| 20260903230108 | 58 | 308 | 0.0 | 0.0 | 0.00 | 0.00 | 0.00 | 87 | 1017.5 |
| 20260903225108 | 58 | 308 | 0.0 | 1.0 | 0.00 | 0.01 | 0.00 | 87 | 1017.6 |
| 20260903223108 | 58 | 307 | 0.0 | 0.0 | 0.00 | 0.01 | 0.00 | 87 | 1017.7 |
| 20260903221108 | 59 | 307 | 0.0 | 0.0 | 0.00 | 0.01 | 0.00 | 87 | 1017.9 |
| 20260903212108 | 58 | 305 | 0.0 | 5.0 | 0.00 | 0.01 | 0.01 | 87 | 1017.6 |
| 20260903210113 | 58 | 319 | 0.0 | 1.0 | 0.00 | 0.01 | 0.01 | 86 | 1017.8 |
| 20260903205112 | 59 | 319 | 0.0 | 0.0 | 0.00 | 0.01 | 0.01 | 85 | 1017.8 |
| 20260903204112 | 59 | 319 | 0.0 | 0.0 | 0.00 | 0.01 | 0.01 | 85 | 1017.6 |
| 20260903203112 | 60 | 319 | 0.0 | 0.0 | 0.00 | 0.01 | 0.01 | 84 | 1017.8 |
| 20260903200112 | 60 | 76 | 0.0 | 0.0 | 0.00 | 0.01 | 0.01 | 83 | 1017.9 |
| 20260903192112 | 61 | 309 | 0.0 | 5.0 | 0.00 | 0.01 | 0.01 | 81 | 1017.7 |
| 20260903184112 | 60 | 155 | 0.0 | 5.0 | 0.00 | 0.09 | 0.01 | 81 | 1017.2 |
| 20260903183112 | 60 | 153 | 0.0 | 0.0 | 0.00 | 0.09 | 0.01 | 81 | 1017.1 |
| 20260903181112 | 60 | 153 | 0.0 | 0.0 | 0.00 | 0.09 | 0.01 | 82 | 1017.1 |
| 20260903180111 | 61 | 153 | 0.0 | 0.0 | 0.00 | 0.09 | 0.01 | 81 | 1016.9 |
| 20260903174111 | 62 | 153 | 0.0 | 0.0 | 0.00 | 0.09 | 0.01 | 80 | 1016.8 |
| 20260903172111 | 62 | 153 | 0.0 | 0.0 | 0.00 | 0.09 | 0.01 | 76 | 1016.7 |